LogID,LogEntryDate,LogEntryTime,LogEntrySeconds,01_LogMark,AFR,STFT,CurrentLTFT,IdleLTFT,CruiseLTFT,Load,O2Sensor2,IPW,AFRMAP,LoadTiming,TimingAdv,KnockSum,RPM,Baro,MAP,Boost,WGDC_Active,MAF,IDC,InVVTtarget,APP,ExVVTtarget,InVVTactual,ExVVTactual,TPS,IAT,WGDCCorr,Speed,Battery,ECT,MAT,MAPCalcs,IMAPCalcs,MAFCalcs,ChosenCalc,Custom
1,2024-06-24,04:59:28.74115,0.2986,0,0,0,-12.109375,-12.109375,-6.4453125,12.5,,1.3,,12.5,41,0,2765.625,14.86636835,3.1840677,-11.68230065,0,1.490208,2.99609375,10,,0,10.46875,0.3125,13.7254901960784,86,0,59.664,,183.2,105.8,9.375,7.8125,9.375,9.375,
2,2024-06-24,04:59:28.83492,0.39147,0,10.7,0,-12.109375,-12.109375,-6.4453125,9.375,,0,,9.375,-10,0,2718.75,14.86636835,3.1840677,-11.68230065,0,1.490208,0,10,,0,10.46875,0.3125,13.7254901960784,86,0,59.664,,183.2,105.8,9.375,7.8125,6.25,7.8125,
3,2024-06-24,04:59:28.92867,0.48444,0,10.7,0,-12.109375,-12.109375,-6.4453125,7.8125,,0,,7.8125,-10,0,2726.5625,14.86636835,2.9910939,-11.87527445,0,1.490208,0,10,,0,10.46875,0.3125,13.7254901960784,86,0,59.664,,183.2,105.8,9.375,7.8125,10.9375,7.8125,
4,2024-06-24,04:59:28.95990,0.52827,0,10.7,0,-12.109375,-12.109375,-6.4453125,7.8125,,0,,7.8125,-10,0,2718.75,14.86636835,2.9910939,-11.87527445,0,1.490208,0,10,,0,10.3125,0.3125,13.7254901960784,86,0,59.664,,183.2,105.8,9.375,7.8125,7.8125,7.8125,
5,2024-06-24,04:59:29.02242,0.59074,0,10.8,0,-12.109375,-12.109375,-6.4453125,7.8125,,0,,7.8125,-10,0,2710.9375,14.86636835,2.9910939,-11.87527445,0,1.411776,0,10,,0,10.3125,0.3125,13.7254901960784,86,0,59.664,,183.2,105.8,9.375,7.8125,6.25,7.8125,
6,2024-06-24,04:59:29.05365,0.61213,0,10.8,0,-12.109375,-12.109375,-6.4453125,7.8125,,0,,7.8125,-10,0,2710.9375,14.86636835,2.9910939,-11.87527445,0,1.411776,0,10,,0,10.3125,0.3125,13.7254901960784,86,0,57.178,,183.2,105.8,9.375,7.8125,6.25,7.8125,
7,2024-06-24,04:59:29.10056,0.66294,0,10.8,0,-12.109375,-12.109375,-6.4453125,7.8125,,0,,7.8125,-10,0,2703.125,14.86636835,2.9910939,-11.87527445,0,1.431384,0,10,,0,10.3125,0.3125,13.7254901960784,86,0,57.178,,183.2,105.8,9.375,7.8125,3.125,7.8125,
8,2024-06-24,04:59:29.14740,0.71079,0,11.7,0,-12.109375,-12.109375,-6.4453125,7.8125,,0,,7.8125,-10,0,2695.3125,14.86636835,2.9910939,-11.87527445,0,1.431384,0,10,,0,10.3125,0.3125,13.7254901960784,86,0,57.178,,183.2,105.8,9.375,7.8125,7.8125,7.8125,
9,2024-06-24,04:59:29.20999,0.76731,0,11.7,0,-12.109375,-12.109375,-6.4453125,7.8125,,0,,7.8125,-10,0,2695.3125,14.86636835,2.894607,-11.97176135,0,1.56864,0,10,,0,10.3125,0.3125,13.7254901960784,86,0,57.178,,183.2,105.8,9.375,7.8125,6.25,7.8125,
10,2024-06-24,04:59:29.25678,0.8128,0,11.7,0,-12.109375,-12.109375,-6.4453125,7.8125,,0,,7.8125,-10,0,2679.6875,14.86636835,2.894607,-11.97176135,0,1.56864,0,10,,0,10.3125,0.15625,13.7254901960784,86,0,57.178,,183.2,105.8,9.375,7.8125,4.6875,7.8125,
11,2024-06-24,04:59:29.33490,0.89484,0,13.8,0,-12.109375,-12.109375,-6.4453125,7.8125,,0,,7.8125,-10,0,2671.875,14.86636835,2.9910939,-11.87527445,0,1.450992,0,10,,0,10.3125,0.15625,13.7254901960784,86,0,57.178,,183.2,105.8,9.375,7.8125,7.8125,7.8125,
12,2024-06-24,04:59:29.38178,0.94541,0,13.8,0,-12.109375,-12.109375,-6.4453125,7.8125,,0,,7.8125,-10,0,2664.0625,14.86636835,2.9910939,-11.87527445,0,1.450992,0,10,,0,10.3125,0.3125,13.7254901960784,86,0,57.178,,183.2,105.8,9.375,7.8125,6.25,7.8125,
13,2024-06-24,04:59:29.42865,0.98438,0,13.8,0,-12.109375,-12.109375,-6.4453125,7.8125,,0,,7.8125,-10,0,2664.0625,14.86636835,2.9910939,-11.87527445,0,1.4706,0,10,,0,10.3125,0.3125,13.7254901960784,86,0,57.178,,183.2,105.8,9.375,7.8125,7.8125,7.8125,
14,2024-06-24,04:59:29.44427,1.01242,0,18.5,0,-12.109375,-12.109375,-6.4453125,7.8125,,0,,7.8125,-10,0,2664.0625,14.86636835,2.9910939,-11.87527445,0,1.4706,0,10,,0,10.3125,0.3125,13.7254901960784,86,0,57.178,,183.2,105.8,9.375,7.8125,6.25,7.8125,
15,2024-06-24,04:59:29.50678,1.06461,0,18.5,0,-12.109375,-12.109375,-6.4453125,7.8125,,0,,7.8125,-10,0,2656.25,14.86636835,2.9910939,-11.87527445,0,1.490208,0,10,,0,10.3125,0.3125,13.7254901960784,86,0,57.178,,183.2,105.8,9.375,7.8125,6.25,7.8125,
16,2024-06-24,04:59:29.55366,1.12049,0,18.5,0,-12.109375,-12.109375,-6.4453125,7.8125,,0,,7.8125,-10,0,2664.0625,14.86636835,2.9910939,-11.87527445,0,1.490208,0,10,,0,10.3125,0.3125,13.7254901960784,86,0,57.178,,183.2,105.8,9.375,0,7.8125,7.8125,
17,2024-06-24,04:59:29.63182,1.1985,0,18.5,0,-12.109375,-12.109375,-6.4453125,7.8125,,0,,7.8125,-10,0,2648.4375,14.86636835,2.9910939,-11.87527445,0,1.431384,0,10,,0,10.3125,0.3125,13.3333333333333,86,0,57.178,,183.2,105.8,9.375,0,7.8125,7.8125,
18,2024-06-24,04:59:29.67871,1.24465,0,18.5,0,-12.109375,-12.109375,-6.4453125,7.8125,,0,,7.8125,-10,0,2640.625,14.86636835,2.9910939,-11.87527445,0,1.431384,0,10,,0,10.46875,0.3125,13.3333333333333,86,0,55.935,,183.2,105.8,9.375,0,9.375,7.8125,
19,2024-06-24,04:59:29.72556,1.28577,0,18.5,0,-12.109375,-12.109375,-6.4453125,7.8125,,0,,7.8125,-10,0,2640.625,14.86636835,2.9910939,-11.87527445,0,1.529424,0,10,,0,10.46875,0.3125,13.3333333333333,86,0,55.935,,183.2,105.8,9.375,0,7.8125,7.8125,
20,2024-06-24,04:59:29.75679,1.32342,0,18.5,0,-12.109375,-12.109375,-6.4453125,7.8125,,0,,7.8125,-10,0,2632.8125,14.86636835,2.9910939,-11.87527445,0,1.529424,0,10,,0,10.46875,0.3125,13.3333333333333,86,0,55.935,,183.2,105.8,9.375,0,9.375,7.8125,
21,2024-06-24,04:59:29.85056,1.41128,0,18.5,0,-12.109375,-12.109375,-6.4453125,9.375,,0,,9.375,-10,0,2632.8125,14.86636835,2.9910939,-11.87527445,0,1.549032,0,10,,0,10.46875,0.3125,13.3333333333333,86,0,55.935,,183.2,105.8,9.375,0,10.9375,9.375,
22,2024-06-24,04:59:29.88181,1.4437,0,18.5,0,-12.109375,-12.109375,-6.4453125,9.375,,0,,9.375,-10,0,2632.8125,14.86636835,2.9910939,-11.87527445,0,1.549032,0,10,,0,10.46875,0.3125,13.3333333333333,86,0,55.935,,183.2,105.8,9.375,0,10.9375,9.375,
23,2024-06-24,04:59:29.94431,1.50361,0,18.5,0,-12.109375,-12.109375,-6.4453125,9.375,,0,,9.375,-10,0,2632.8125,14.86636835,2.9910939,-11.87527445,0,1.509816,0,10,,0,10.46875,0.3125,13.3333333333333,86,0,55.935,,183.2,105.8,9.375,0,7.8125,9.375,
24,2024-06-24,04:59:29.99116,1.54956,0,18.5,0,-12.109375,-12.109375,-6.4453125,9.375,,0,,9.375,-10,0,2632.8125,14.86636835,2.9910939,-11.87527445,0,1.509816,0,10,,0,10.625,0.3125,13.3333333333333,86,0,55.935,,183.2,105.8,9.375,0,6.25,7.8125,
25,2024-06-24,04:59:30.08493,1.64899,0,18.5,0,-12.109375,-12.109375,-6.4453125,7.8125,,0,,7.8125,-10,0,2625,14.86636835,2.9910939,-11.87527445,0,1.4706,0,10,,0,10.625,0.3125,13.3333333333333,86,0,55.935,,183.2,105.8,9.375,0,7.8125,7.8125,
26,2024-06-24,04:59:30.13181,1.69679,0,18.5,0,-12.109375,-12.109375,-6.4453125,7.8125,,0,,7.8125,-10,0,2609.375,14.86636835,2.9910939,-11.87527445,0,1.4706,0,10,,0,10.625,0.15625,13.3333333333333,86,0,55.935,,183.2,105.8,9.375,0,6.25,7.8125,
27,2024-06-24,04:59:30.16305,1.73056,0,18.5,0,-12.109375,-12.109375,-6.4453125,7.8125,,0,,7.8125,-10,0,2609.375,14.86636835,2.9910939,-11.87527445,0,1.431384,0,10,,0,10.625,0.15625,13.3333333333333,86,0,55.935,,183.2,105.8,9.375,0,7.8125,7.8125,
28,2024-06-24,04:59:30.19431,1.75598,0,18.5,0,-12.109375,-12.109375,-6.4453125,7.8125,,0,,7.8125,-10,0,2609.375,14.86636835,2.9910939,-11.87527445,0,1.431384,0,10,,0,10.46875,0.3125,13.3333333333333,86,0,55.935,,183.2,105.8,9.375,0,6.25,7.8125,
29,2024-06-24,04:59:30.22555,1.79095,0,18.5,0,-12.109375,-12.109375,-6.4453125,7.8125,,0,,7.8125,-10,0,2609.375,14.86636835,2.9910939,-11.87527445,0,1.490208,0,10,,0,10.46875,0.3125,13.3333333333333,86,0,55.935,,183.2,105.8,9.375,0,6.25,7.8125,
30,2024-06-24,04:59:30.24117,1.80847,0,18.5,0,-12.109375,-12.109375,-6.4453125,7.8125,,0,,7.8125,-10,0,2609.375,14.86636835,2.9910939,-11.87527445,0,1.490208,0,10,,0,10.46875,0.3125,13.3333333333333,86,0,54.692,,183.2,105.8,9.375,0,6.25,6.25,
31,2024-06-24,04:59:30.28807,1.84683,0,18.5,0,-12.109375,-12.109375,-6.4453125,7.8125,,0,,7.8125,-10,0,2609.375,14.86636835,2.9910939,-11.87527445,0,1.549032,0,10,,0,10.46875,0.3125,13.3333333333333,86,0,54.692,,183.2,105.8,9.375,0,7.8125,7.8125,
32,2024-06-24,04:59:30.30368,1.87239,0,18.5,0,-12.109375,-12.109375,-6.4453125,7.8125,,0,,7.8125,-10,0,2609.375,14.86636835,2.9910939,-11.87527445,0,1.549032,0,10,,0,10.3125,0.3125,13.3333333333333,86,0,54.692,,183.2,105.8,9.375,0,10.9375,7.8125,
33,2024-06-24,04:59:30.33495,1.9045,0,18.5,0,-12.109375,-12.109375,-6.4453125,7.8125,,0,,7.8125,-10,0,2609.375,14.86636835,2.9910939,-11.87527445,0,1.627464,0,10,,0,10.3125,0.3125,13.3333333333333,86,0,54.692,,183.2,105.8,9.375,0,9.375,9.375,
34,2024-06-24,04:59:30.39740,1.96451,0,18.5,0,-12.109375,-12.109375,-6.4453125,9.375,,0,,7.8125,-10,0,2601.5625,14.86636835,2.9910939,-11.87527445,0,1.627464,0,10,,0,10.46875,0.3125,13.3333333333333,86,0,54.692,,183.2,105.8,9.375,0,9.375,7.8125,
35,2024-06-24,04:59:30.47552,2.03522,0,18.5,0,-12.109375,-12.109375,-6.4453125,7.8125,,0,,7.8125,-10,0,2593.75,14.86636835,2.9910939,-11.87527445,0,1.392168,0,10,,0,10.46875,0.3125,13.3333333333333,86,0,54.692,,183.2,105.8,9.375,0,4.6875,7.8125,
36,2024-06-24,04:59:30.50677,2.0624,0,18.5,0,-12.109375,-12.109375,-6.4453125,7.8125,,0,,7.8125,-10,0,2593.75,14.86636835,2.9910939,-11.87527445,0,1.392168,0,10,,0,10.3125,0.15625,13.3333333333333,86,0,54.692,,183.2,105.8,9.375,0,4.6875,6.25,
37,2024-06-24,04:59:30.56932,2.138,0,18.5,0,-12.109375,-12.109375,-6.4453125,6.25,,0,,6.25,-10,0,2585.9375,14.86636835,2.9910939,-11.87527445,0,1.509816,0,10,,0,10.3125,0.15625,13.3333333333333,86,0,54.692,,183.2,105.8,9.375,0,7.8125,6.25,
38,2024-06-24,04:59:30.61618,2.18563,0,18.5,0,-12.109375,-12.109375,-6.4453125,6.25,,0,,6.25,-10,0,2593.75,14.86636835,2.9910939,-11.87527445,0,1.509816,0,10,,0,10.3125,0.3125,13.3333333333333,86,0,54.692,,183.2,105.8,9.375,0,6.25,6.25,
39,2024-06-24,04:59:30.67869,2.2381,0,18.5,0,-12.109375,-12.109375,-6.4453125,6.25,,0,,6.25,-10,0,2585.9375,14.86636835,2.9910939,-11.87527445,0,1.4706,0,10,,0,10.3125,0.3125,13.3333333333333,86,0,54.692,,183.2,105.8,9.375,0,6.25,6.25,
40,2024-06-24,04:59:30.72556,2.28801,0,18.5,0,-12.109375,-12.109375,-6.4453125,6.25,,0,,6.25,-10,0,2578.125,14.86636835,2.9910939,-11.87527445,0,1.4706,0,10,,0,10.625,0.3125,13.3333333333333,86,0,54.692,,183.2,105.8,9.375,0,4.6875,6.25,
41,2024-06-24,04:59:30.78803,2.34288,0,18.5,0,-12.109375,-12.109375,-6.4453125,6.25,,0,,6.25,-10,0,2570.3125,14.86636835,2.9910939,-11.87527445,0,1.529424,0,10,,0,10.625,0.3125,13.3333333333333,86,0,54.692,,183.2,105.8,9.375,0,7.8125,7.8125,
42,2024-06-24,04:59:30.85057,2.41538,0,18.5,0,-12.109375,-12.109375,-6.4453125,7.8125,,0,,7.8125,-10,0,2484.375,14.86636835,2.9910939,-11.87527445,0,1.529424,0,10,,0,10.46875,0.3125,13.3333333333333,86,0,54.692,,183.2,105.8,9.375,0,9.375,7.8125,
43,2024-06-24,04:59:30.91307,2.48141,0,18.5,0,-12.109375,-12.109375,-6.4453125,7.8125,,0,,7.8125,-10,0,2414.0625,14.86636835,3.0875808,-11.77878755,0,1.549032,0,10,,0,10.46875,0.3125,13.3333333333333,86,0,54.692,,183.2,105.8,9.375,0,7.8125,7.8125,
44,2024-06-24,04:59:30.95993,2.52731,0,18.5,0,-12.109375,-12.109375,-6.4453125,7.8125,,0,,7.8125,-10,0,2335.9375,14.86636835,3.0875808,-11.77878755,0,1.549032,0,10,,0,10.46875,0.15625,12.9411764705882,86,0,54.692,,183.2,105.8,10.9375,0,9.375,7.8125,
45,2024-06-24,04:59:31.03802,2.59436,0,18.5,0,-12.109375,-12.109375,-6.4453125,9.375,,0,,7.8125,-10,0,2242.1875,14.86636835,3.0875808,-11.77878755,0,1.490208,0,10,,0,10.46875,0.15625,12.9411764705882,86,0,53.449,,183.2,105.8,10.9375,0,4.6875,7.8125,
46,2024-06-24,04:59:31.10057,2.65998,0,18.5,0,-12.109375,-12.109375,-6.4453125,7.8125,,0,,7.8125,-10,0,2156.25,14.86636835,3.0875808,-11.77878755,0,1.490208,0,10,,0,10.625,0.3125,12.9411764705882,86,0,53.449,,183.2,105.8,10.9375,0,6.25,7.8125,
47,2024-06-24,04:59:31.14744,2.71148,0,18.5,0,-12.109375,-12.109375,-6.4453125,7.8125,,0,,7.8125,-10,0,2093.75,14.86636835,3.0875808,-11.77878755,0,1.588248,0,10,,0,10.625,0.3125,12.5490196078431,86,0,53.449,,183.2,105.8,10.9375,0,12.5,7.8125,
48,2024-06-24,04:59:31.20993,2.77771,0,18.5,0,-12.109375,-12.109375,-6.4453125,9.375,,0,,9.375,-10,0,2023.4375,14.86636835,3.0875808,-11.77878755,0,1.588248,0,10,,0,10.625,0.625,12.5490196078431,86,0,53.449,,183.2,105.8,10.9375,0,7.8125,9.375,
49,2024-06-24,04:59:31.27240,2.83829,0,18.5,0,-12.109375,-12.109375,-6.4453125,9.375,,0,,9.375,-10,0,1937.5,14.86636835,3.0875808,-11.77878755,0,1.4706,0,10,,0,10.625,0.625,12.5490196078431,86,0,53.449,,183.2,105.8,10.9375,0,9.375,9.375,
50,2024-06-24,04:59:31.31933,2.88419,0,18.5,0,-12.109375,-12.109375,-6.4453125,9.375,,0,,9.375,-10,0,1859.375,14.86636835,3.0875808,-11.77878755,0,1.4706,0,10,,0,10.625,0.46875,12.5490196078431,86,0,53.449,,183.2,105.8,12.5,0,9.375,9.375,
51,2024-06-24,04:59:31.39740,2.95297,0,18.5,0,-12.109375,-12.109375,-6.4453125,9.375,,0,,9.375,-10,0,1812.5,14.86636835,3.2805546,-11.58581375,0,1.431384,0,10,,0,10.625,0.46875,12.5490196078431,86,0,53.449,,183.2,105.8,12.5,0,12.5,9.375,
52,2024-06-24,04:59:31.44431,3.00778,0,18.5,0,-12.109375,-12.109375,-6.4453125,9.375,,0,,10.9375,-10,0,1710.9375,14.86636835,3.2805546,-11.58581375,0,1.431384,0,10,,0,10.46875,0.625,12.5490196078431,86,0,53.449,,183.2,105.8,14.0625,0,7.8125,9.375,
53,2024-06-24,04:59:31.52243,3.08343,0,18.5,0,-12.109375,-12.109375,-6.4453125,9.375,,0,,9.375,-10,0,1640.625,14.86636835,3.3770415,-11.48932685,0,1.450992,0,10,,0,10.46875,0.625,12.5490196078431,86,0,53.449,,183.2,105.8,14.0625,0,6.25,9.375,
54,2024-06-24,04:59:31.56930,3.12815,0,18.5,0,-12.109375,-12.109375,-6.4453125,9.375,,0,,9.375,-10,0,1656.25,14.86636835,3.3770415,-11.48932685,0,1.450992,0,10,,0,10.46875,0.46875,12.5490196078431,86,0,53.449,,183.2,105.8,14.0625,0,12.5,9.375,
55,2024-06-24,04:59:31.60052,3.16249,0,18.5,0,-12.109375,-12.109375,-6.4453125,9.375,,0,,9.375,-10,0,1710.9375,14.86636835,3.3770415,-11.48932685,0,1.450992,0,10,,0,10.46875,0.46875,12.5490196078431,86,0,53.449,,183.2,105.8,14.0625,0,10.9375,9.375,
56,2024-06-24,04:59:31.64741,3.2104,0,18.5,0,-12.109375,-12.109375,-6.4453125,9.375,,0,,9.375,-10,0,1765.625,14.86636835,3.3770415,-11.48932685,0,1.450992,0,10,,0,10.3125,0.46875,12.5490196078431,86,0,53.449,,183.2,105.8,14.0625,0,6.25,9.375,
57,2024-06-24,04:59:31.70995,3.27414,0,18.5,0,-12.109375,-12.109375,-6.4453125,9.375,,0,,9.375,-10,0,1851.5625,14.86636835,3.2805546,-11.58581375,0,1.450992,0,10,,0,10.3125,0.46875,12.5490196078431,86,0,53.449,,183.2,105.8,12.5,0,4.6875,7.8125,
58,2024-06-24,04:59:31.78805,3.34705,0,18.5,0,-12.109375,-12.109375,-6.4453125,7.8125,,0,,7.8125,-10,0,2062.5,14.86636835,3.2805546,-11.58581375,0,1.450992,0,10,,0,10,0.3125,12.5490196078431,86,0,53.449,,183.2,105.8,10.9375,0,6.25,7.8125,
59,2024-06-24,04:59:31.86617,3.42102,0,18.5,0,-12.109375,-12.109375,-6.4453125,7.8125,,0,,7.8125,-10,0,2203.125,14.86636835,3.0875808,-11.77878755,0,1.4706,0,10,,0,10,0.3125,13.3333333333333,86,0,53.449,,183.2,105.8,9.375,0,7.8125,6.25,
60,2024-06-24,04:59:31.89743,3.46728,0,18.5,0,-12.109375,-12.109375,-6.4453125,7.8125,,0,,7.8125,-10,0,2390.625,14.86636835,3.0875808,-11.77878755,0,1.4706,0,10,,0,10.15625,0.15625,13.3333333333333,86,0,53.449,,183.2,105.8,9.375,0,7.8125,7.8125,
61,2024-06-24,04:59:31.95994,3.51698,0,18.5,0,-12.109375,-12.109375,-6.4453125,7.8125,,0,,7.8125,-10,0,2507.8125,14.86636835,3.0875808,-11.77878755,0,1.56864,0,10,,0,10.15625,0.15625,13.3333333333333,86,0,53.449,,183.2,105.8,9.375,0,9.375,7.8125,
62,2024-06-24,04:59:31.99115,3.56106,0,18.5,0,-12.109375,-12.109375,-6.4453125,7.8125,,0,,7.8125,-10,0,2617.1875,14.86636835,3.0875808,-11.77878755,0,1.56864,0,10,,0,10,0.46875,13.7254901960784,86,0,53.449,,183.2,105.8,9.375,0,9.375,9.375,
63,2024-06-24,04:59:32.10055,3.66216,0,18.5,0,-12.109375,-12.109375,-6.4453125,9.375,,0,,9.375,-10,0,2765.625,14.86636835,2.9910939,-11.87527445,0,1.529424,0,10,,0,10,0.46875,13.7254901960784,86,0,53.449,,183.2,105.8,9.375,0,6.25,7.8125,
64,2024-06-24,04:59:32.16303,3.72285,0,18.5,0,-12.109375,-12.109375,-6.4453125,7.8125,,0,,7.8125,-10,0,2984.375,14.86636835,2.9910939,-11.87527445,0,1.529424,0,10,,0,10,0.46875,13.7254901960784,86,0,53.449,,183.2,105.8,10.9375,0,7.8125,7.8125,
65,2024-06-24,04:59:32.20993,3.7728,0,18.5,0,-12.109375,-12.109375,-6.4453125,7.8125,,0,,7.8125,-10,0,3093.75,14.86636835,2.9910939,-11.87527445,0,1.56864,0,10,,0,10,0.46875,14.1176470588235,86,0,53.449,,183.2,105.8,10.9375,0,6.25,7.8125,
66,2024-06-24,04:59:32.25681,3.81767,0,18.5,0,-12.109375,-12.109375,-6.4453125,7.8125,,0,,7.8125,-10,0,3195.3125,14.86636835,2.9910939,-11.87527445,0,1.56864,0,10,,0,9.84375,0.3125,14.1176470588235,86,0,53.449,,183.2,105.8,10.9375,0,6.25,7.8125,
67,2024-06-24,04:59:32.31928,3.8872,0,18.5,0,-12.109375,-12.109375,-6.4453125,7.8125,,0,,7.8125,-10,0,3296.875,14.86636835,3.0875808,-11.77878755,0,1.549032,0,10,,0,9.84375,0.3125,14.1176470588235,86,0,53.449,,183.2,105.8,10.9375,0,7.8125,7.8125,
68,2024-06-24,04:59:32.36619,3.93136,0,18.5,0,-12.109375,-12.109375,-6.4453125,7.8125,,0,,7.8125,-10,0,3437.5,14.86636835,3.0875808,-11.77878755,0,1.549032,0,10,,0,9.6875,0.15625,14.5098039215686,84.2,0,53.449,,183.2,105.8,12.5,0,7.8125,7.8125,
69,2024-06-24,04:59:32.44430,4.00737,0,18.5,0,-12.109375,-12.109375,-6.4453125,7.8125,,0,,7.8125,-5,0,3507.8125,14.86636835,2.9910939,-11.87527445,0,1.509816,0,10,,0,9.6875,0.15625,14.5098039215686,84.2,0,50.963,,183.2,105.8,12.5,0,7.8125,7.8125,
70,2024-06-24,04:59:32.50684,4.07057,0,18.5,0,-12.109375,-12.109375,-6.4453125,7.8125,,0,,7.8125,27,0,3500,14.86636835,2.9910939,-11.87527445,0,1.509816,0,10,,0,9.84375,0.15625,14.5098039215686,84.2,0,50.963,,183.2,105.8,12.5,0,9.375,7.8125,
71,2024-06-24,04:59:32.61621,4.18358,0,18.5,0,-12.109375,-12.109375,-6.4453125,7.8125,,0,,7.8125,-10,0,3476.5625,14.86636835,2.9910939,-11.87527445,0,1.56864,0,10,,0,9.84375,0.15625,14.5098039215686,86,0,50.963,,183.2,105.8,12.5,0,7.8125,7.8125,
72,2024-06-24,04:59:32.69432,4.26008,0,18.5,0,-12.109375,-12.109375,-6.4453125,7.8125,,0,,7.8125,-10,0,3460.9375,14.86636835,2.9910939,-11.87527445,0,1.56864,0,10,,0,9.6875,0.15625,14.5098039215686,86,0,50.963,,183.2,105.8,12.5,0,7.8125,7.8125,
73,2024-06-24,04:59:32.75681,4.32198,0,18.5,0,-12.109375,-12.109375,-6.4453125,7.8125,,0,,7.8125,-10,0,3453.125,14.86636835,2.9910939,-11.87527445,0,1.490208,0,10,,0,9.6875,0.15625,14.5098039215686,86,0,50.963,,183.2,105.8,12.5,0,6.25,7.8125,
74,2024-06-24,04:59:32.77244,4.34216,0,18.5,0,-12.109375,-12.109375,-6.4453125,7.8125,,0,,7.8125,-10,0,3453.125,14.86636835,2.9910939,-11.87527445,0,1.490208,0,10,,0,9.6875,0.15625,14.5098039215686,84.2,0,50.963,,183.2,105.8,12.5,0,7.8125,7.8125,
75,2024-06-24,04:59:32.83490,4.39056,0,18.5,0,-12.109375,-12.109375,-6.4453125,7.8125,,0,,7.8125,-10,0,3445.3125,14.86636835,2.9910939,-11.87527445,0,1.607856,0,10,,0,9.6875,0.15625,14.5098039215686,84.2,0,50.963,,183.2,105.8,12.5,0,7.8125,7.8125,
76,2024-06-24,04:59:32.88180,4.43778,0,18.5,0,-12.109375,-12.109375,-6.4453125,7.8125,,0,,7.8125,-10,0,3429.6875,14.86636835,2.9910939,-11.87527445,0,1.607856,0,10,,0,9.6875,0.3125,14.5098039215686,84.2,0,50.963,,183.2,105.8,12.5,0,9.375,9.375,
77,2024-06-24,04:59:32.95990,4.52029,0,18.5,0,-12.109375,-12.109375,-6.4453125,9.375,,0,,9.375,-10,0,3421.875,14.86636835,2.9910939,-11.87527445,0,1.66668,0,10,,0,9.6875,0.3125,14.1176470588235,84.2,0,50.963,,183.2,105.8,12.5,0,7.8125,9.375,
78,2024-06-24,04:59:33.00678,4.56569,0,18.5,0,-12.109375,-12.109375,-6.4453125,9.375,,0,,9.375,-10,0,3414.0625,14.86636835,2.9910939,-11.87527445,0,1.66668,0,10,,0,9.84375,0.3125,14.1176470588235,84.2,0,50.963,,183.2,105.8,10.9375,0,9.375,9.375,
79,2024-06-24,04:59:33.10055,4.65541,0,18.5,0,-12.109375,-12.109375,-6.4453125,9.375,,0,,9.375,-10,0,3398.4375,14.86636835,3.0875808,-11.77878755,0,1.686288,0,10,,0,9.84375,0.3125,14.1176470588235,84.2,0,50.963,,183.2,105.8,12.5,0,6.25,9.375,
80,2024-06-24,04:59:33.14744,4.71188,0,18.5,0,-12.109375,-12.109375,-6.4453125,9.375,,0,,9.375,-10,0,3375,14.86636835,3.0875808,-11.77878755,0,1.686288,0,10,,0,9.6875,0.15625,14.1176470588235,84.2,0,50.963,,183.2,105.8,12.5,0,9.375,9.375,
81,2024-06-24,04:59:33.20992,4.77434,0,18.5,0,-12.109375,-12.109375,-6.4453125,9.375,,0,,9.375,-10,0,3375,14.86636835,2.9910939,-11.87527445,0,1.607856,0,10,,0,9.6875,0.15625,14.1176470588235,84.2,0,49.72,,183.2,105.8,10.9375,0,9.375,9.375,
82,2024-06-24,04:59:33.25680,4.82473,0,18.5,0,-12.109375,-12.109375,-6.4453125,9.375,,0,,9.375,-10,0,3359.375,14.86636835,2.9910939,-11.87527445,0,1.607856,0,10,,0,9.53125,0.3125,14.1176470588235,84.2,0,49.72,,183.2,105.8,10.9375,0,7.8125,9.375,
83,2024-06-24,04:59:33.31933,4.88557,0,18.5,0,-12.109375,-12.109375,-6.4453125,9.375,,0,,9.375,-10,0,3351.5625,14.86636835,2.9910939,-11.87527445,0,1.647072,0,10,,0,9.53125,0.3125,14.1176470588235,84.2,0,49.72,,183.2,105.8,10.9375,0,9.375,9.375,
84,2024-06-24,04:59:33.38178,4.9375,0,18.5,0,-12.109375,-12.109375,-6.4453125,9.375,,0,,9.375,-10,0,3335.9375,14.86636835,2.9910939,-11.87527445,0,1.647072,0,10,,0,9.6875,0.3125,14.1176470588235,84.2,0,49.72,,183.2,105.8,10.9375,0,7.8125,9.375,
85,2024-06-24,04:59:33.44430,5.00078,0,18.5,0,-12.109375,-12.109375,-6.4453125,9.375,,0,,9.375,-10,0,3320.3125,14.86636835,2.9910939,-11.87527445,0,1.529424,0,10,,0,9.6875,0.3125,14.1176470588235,84.2,0,49.72,,183.2,105.8,10.9375,0,7.8125,7.8125,
86,2024-06-24,04:59:33.47553,5.04092,0,18.5,0,-12.109375,-12.109375,-6.4453125,9.375,,0,,9.375,-10,0,3312.5,14.86636835,2.9910939,-11.87527445,0,1.529424,0,10,,0,9.6875,0.3125,14.1176470588235,84.2,0,49.72,,183.2,105.8,10.9375,0,7.8125,7.8125,
87,2024-06-24,04:59:33.53802,5.09946,0,18.5,0,-12.109375,-12.109375,-6.4453125,9.375,,0,,9.375,-10,0,3304.6875,14.86636835,2.9910939,-11.87527445,0,1.627464,0,10,,0,9.6875,0.3125,14.1176470588235,84.2,0,49.72,,183.2,105.8,10.9375,0,7.8125,9.375,
88,2024-06-24,04:59:33.58494,5.14853,0,18.5,0,-12.109375,-12.109375,-6.4453125,9.375,,0,,9.375,-10,0,3289.0625,14.86636835,2.9910939,-11.87527445,0,1.627464,0,10,,0,9.84375,0.46875,14.1176470588235,84.2,0,49.72,,183.2,105.8,10.9375,0,7.8125,7.8125,
89,2024-06-24,04:59:33.64740,5.20714,0,18.5,0,-12.109375,-12.109375,-6.4453125,9.375,,0,,9.375,-10,0,3281.25,14.86636835,2.9910939,-11.87527445,0,1.588248,0,10,,0,9.84375,0.46875,14.1176470588235,84.2,0,49.72,,183.2,105.8,10.9375,0,7.8125,7.8125,
90,2024-06-24,04:59:33.72553,5.29011,0,18.5,0,-12.109375,-12.109375,-6.4453125,7.8125,,0,,7.8125,-10,0,3273.4375,14.86636835,2.9910939,-11.87527445,0,1.588248,0,10,,0,9.84375,0.3125,14.1176470588235,84.2,0,49.72,,183.2,105.8,10.9375,0,7.8125,7.8125,
91,2024-06-24,04:59:33.81930,5.37714,0,18.5,0,-12.109375,-12.109375,-6.4453125,9.375,,0,,9.375,-10,0,3257.8125,14.86636835,3.0875808,-11.77878755,0,1.588248,0,10,,0,9.84375,0.3125,14.1176470588235,84.2,0,49.72,,183.2,105.8,10.9375,0,9.375,9.375,
92,2024-06-24,04:59:33.88179,5.43908,0,18.5,0,-12.109375,-12.109375,-6.4453125,9.375,,0,,9.375,-10,0,3242.1875,14.86636835,3.0875808,-11.77878755,0,1.588248,0,10,,0,10,0.3125,14.1176470588235,84.2,0,49.72,,183.2,105.8,10.9375,0,9.375,9.375,
93,2024-06-24,04:59:33.94427,5.50335,0,18.5,0,-12.109375,-12.109375,-6.4453125,9.375,,0,,9.375,-10,0,3226.5625,14.86636835,3.0875808,-11.77878755,0,1.607856,0,10,,0,10,0.3125,14.1176470588235,84.2,0,47.234,,183.2,105.8,10.9375,0,7.8125,9.375,
94,2024-06-24,04:59:34.00678,5.57002,0,18.5,0,-12.109375,-12.109375,-6.4453125,9.375,,0,,9.375,-10,0,3210.9375,14.86636835,3.0875808,-11.77878755,0,1.607856,0,10,,0,9.84375,0.3125,14.1176470588235,84.2,0,47.234,,183.2,105.8,10.9375,0,9.375,9.375,
95,2024-06-24,04:59:34.06928,5.63323,0,18.5,0,-12.109375,-12.109375,-6.4453125,9.375,,0,,9.375,-10,0,3195.3125,14.86636835,3.0875808,-11.77878755,0,1.647072,0,10,,0,9.84375,0.3125,14.1176470588235,84.2,0,47.234,,183.2,105.8,10.9375,0,7.8125,9.375,
96,2024-06-24,04:59:34.11620,5.68019,0,18.5,0,-12.109375,-12.109375,-6.4453125,9.375,,0,,9.375,-10,0,3187.5,14.86636835,3.0875808,-11.77878755,0,1.647072,0,10,,0,9.84375,0.46875,14.1176470588235,84.2,0,47.234,,183.2,105.8,10.9375,0,9.375,9.375,